KA5RUC Weather Reports


time (UTC)temp
F
wind
direction
speed
knots
gust
knots
rain 1hr
in
rain 24hr
in
rain mn
in
humidity
%
barometer
mb
20260503215320 51 74 0.0 0.0 0.00 0.00 0.01 78 1016.1
20260503214829 50 46 0.0 0.0 0.00 0.00 0.01 78 1016.4
20260503214320 50 111 0.0 0.0 0.00 0.00 0.01 79 1016.4
20260503213831 50 111 0.0 0.0 0.00 0.00 0.01 79 1016.4
20260503213317 49 111 0.0 0.0 0.00 0.00 0.01 76 1016.9
20260503212824 50 111 0.0 0.0 0.00 0.00 0.01 75 1016.9
20260503212334 50 111 0.0 0.0 0.00 0.00 0.01 72 1016.9
20260503211820 50 112 0.0 0.0 0.00 0.00 0.01 72 1017.8
20260503211330 51 116 0.9 0.0 0.00 0.00 0.01 69 1017.8
20260503210818 52 126 4.3 0.0 0.00 0.00 0.01 63 1017.8
20260503210327 53 311 4.3 0.0 0.00 0.00 0.01 59 1017.5
20260503205820 54 277 3.5 0.0 0.00 0.00 0.01 55 1017.5
20260503205327 54 242 5.2 0.0 0.00 0.00 0.01 53 1017.5
20260503204325 56 263 7.8 0.0 0.00 0.00 0.01 48 1017.4
20260503203833 57 239 7.0 0.0 0.00 0.00 0.01 42 1017.4
20260503203321 58 226 4.3 0.0 0.00 0.00 0.01 39 1016.9
20260503202828 59 205 1.7 0.0 0.00 0.00 0.01 40 1016.9
20260503202317 58 260 2.6 0.0 0.00 0.00 0.01 39 1016.9
20260503201826 59 244 3.5 0.0 0.00 0.00 0.01 39 1016.8
20260503201319 59 236 3.5 0.0 0.00 0.00 0.01 40 1016.8
20260503200828 59 242 3.5 0.0 0.00 0.00 0.01 38 1016.8
20260503200334 59 238 2.6 0.0 0.00 0.00 0.01 38 1017.0
20260503195825 60 274 2.6 0.0 0.00 0.00 0.01 39 1017.0
20260503194824 59 175 5.2 0.0 0.00 0.00 0.01 38 1017.1
20260503194331 60 221 4.3 0.0 0.00 0.00 0.01 38 1017.1
20260503193327 61 208 2.6 0.0 0.00 0.00 0.01 40 1017.5
20260503192818 61 238 2.6 0.0 0.00 0.00 0.01 37 1017.5
20260503192325 61 185 2.6 0.0 0.00 0.00 0.01 39 1017.5
20260503191819 61 190 2.6 0.0 0.00 0.00 0.01 38 1017.6
20260503191327 60 212 4.3 0.0 0.00 0.00 0.01 38 1017.6
20260503190835 61 234 3.5 0.0 0.00 0.00 0.01 38 1017.6
20260503190320 61 239 1.7 0.0 0.00 0.00 0.01 39 1018.1
20260503185832 61 150 2.6 0.0 0.00 0.00 0.01 40 1018.1
20260503185318 60 213 3.5 0.0 0.00 0.00 0.01 38 1018.1
20260503184829 60 244 3.5 0.0 0.00 0.00 0.01 38 1018.1
20260503184316 60 224 3.5 0.0 0.00 0.00 0.01 38 1018.1
20260503183826 60 235 3.5 0.0 0.00 0.00 0.01 39 1018.1
20260503183321 59 188 2.6 0.0 0.00 0.00 0.01 39 1018.6
20260503182828 60 213 2.6 0.0 0.00 0.00 0.01 37 1018.6
20260503182337 60 223 3.5 0.0 0.00 0.00 0.01 40 1018.6
20260503180825 60 169 2.6 0.0 0.00 0.00 0.01 39 1018.6
20260503175334 59 188 3.5 0.0 0.00 0.00 0.01 40 1018.8
20260503174822 58 248 4.3 0.0 0.00 0.00 0.01 40 1019.0
20260503173820 59 265 2.6 0.0 0.00 0.00 0.01 41 1019.0
20260503173331 59 262 3.5 0.0 0.00 0.00 0.01 41 1019.3
20260503172821 58 210 3.5 0.0 0.00 0.00 0.01 40 1019.3
20260503172330 58 267 2.6 0.0 0.00 0.00 0.01 42 1019.3
20260503171819 59 233 1.7 0.0 0.00 0.00 0.00 44 1019.6
20260503171327 58 214 2.6 0.0 0.00 0.00 0.00 43 1019.6
20260503170835 58 201 2.6 0.0 0.00 0.00 0.00 43 1019.6
20260503170322 57 221 3.5 0.0 0.00 0.00 0.00 45 1019.7
20260503150818 53 250 3.5 0.0 0.00 0.00 0.00 53 1020.8
20260503150325 53 224 1.7 0.0 0.00 0.00 0.00 52 1020.8